Simultaneous Nadir Overpasses (SNOs) Predictions

Prediction of SNOs between GOES-16 and NOAA-19 Satellite Orbit:

Table of predicted SNOs for the next 14.0 days since TLE Epoch: 2/24/2024
Index Date Time (GOES-16) GOES-16 Lat,Lon NOAA-19 Lat,Lon Distance(km) Time Diff (sec)
1 02/26/2024 14:18:54 0.05, -75.23 0.70, -78.07 324.05 80
2 02/27/2024 14:04:02 0.04, -75.24 -0.01, -75.11 15.69 80
3 02/28/2024 13:51:50 0.04, -75.25 -0.66, -72.14 355.21 80
4 03/02/2024 02:14:11 -0.04, -75.25 -0.39, -76.83 179.18 80
5 03/03/2024 01:59:19 -0.04, -75.26 0.26, -73.85 160.51 80
6 03/05/2024 14:21:41 0.04, -75.31 0.76, -78.55 368.66 80
7 03/06/2024 14:09:28 0.04, -75.32 0.09, -75.58 28.56 80
8 03/07/2024 13:54:36 0.04, -75.34 -0.58, -72.61 311.74 80
